Jack C. Davis Observatory, Carson City, Nevada Weather observations

Data are for observation ending at time listed.
 Day   Time    Ave.   Ave.  Ave.  Vector   Max.   Stn.    Total    Solar   Ave.  
  of    of     Air    Rel.  Wind   Wind    Wind   Baro.  Precip.   Rad.    Soil  
Year   Day     Temp.  Hum.  Speed  Dir.    Gust   Pres.                    Temp. 
2026   (PST)    F      %     mph   deg.    mph     mb.     in.     W/m2     F   
------------------------------------------------------------------------------
 129   14:10   78.3    13    4.8   104      9.1   848.1    0.00     878    999.0
 129   14:20   80.4    13    2.0   191      6.1   848.1    0.00     859    999.0
 129   14:30   80.8    13    3.6    33      7.9   847.9    0.00     836    999.0
 129   14:40   79.8    13    3.6    36      8.9   847.8    0.00     814    999.0
 129   14:50   79.7    14    4.3   330      9.2   847.7    0.00     789    999.0
 129   15:00   80.1    13    3.0   282      7.3   847.5    0.00     764    999.0
 129   15:10   81.2    13    3.2   232      6.5   847.4    0.00     738    999.0
 129   15:20   80.1    14    4.9   296      9.7   847.4    0.00     700    999.0
 129   15:30   79.7    14    4.1   279      8.7   847.3    0.00     684    999.0
 129   15:40   80.3    14    4.8   280      9.2   847.2    0.00     651    999.0
 129   15:50   80.7    13    2.8   296      8.6   847.2    0.00     620    999.0
 129   16:00   82.0    13    1.9   324      4.8   847.2    0.00     590    999.0
 129   16:10   82.1    13    2.7   295      6.7   847.1    0.00     559    999.0
 129   16:20   81.1    13    2.3   330      7.2   847.0    0.00     523    999.0
 129   16:30   81.7    12    1.2    55      3.7   847.0    0.00     489    999.0
 129   16:40   81.5    11    2.5   106      6.5   847.0    0.00     451    999.0
 129   16:50   80.0    11    2.7    72      5.3   846.9    0.00     402    999.0
 129   17:00   81.5    11    1.3    21      4.4   847.0    0.00     393    999.0
 129   17:10   81.2    13    4.7   201      9.3   846.9    0.00     352    999.0
 129   17:20   79.8    13    3.1   348      5.8   846.9    0.00     315    999.0
 129   17:30   80.3    14    1.7   282      4.0   846.9    0.00     262    999.0
 129   17:40   78.3    16    3.5   267      5.0   846.9    0.00     240    999.0
 129   17:50   76.0    18    4.0   258      6.8   846.8    0.00     199    999.0
 129   18:00   73.9    18    2.9   228      7.2   846.9    0.00     107    999.0
 129   18:10   72.3    18    3.6   249      7.1   846.9    0.00      33    999.0
 129   18:20   69.2    21    5.5   267      9.1   846.9    0.00      26    999.0
 129   18:30   68.7    20    5.9   262      9.0   846.9    0.00      20    999.0
 129   18:40   66.4    23    7.1   262      9.1   847.0    0.00      15    999.0
 129   18:50   65.9    22    7.3   265     10.0   847.1    0.00      13    999.0
 129   19:00   65.1    22    7.1   264      9.3   847.1    0.00      10    999.0
 129   19:10   64.1    22    6.9   266      9.3   847.2    0.00       3    999.0
 129   19:20   64.0    21    7.0   260      9.6   847.2    0.00       1    999.0
 129   19:30   64.0    20    6.1   266      9.3   847.3    0.00       0    999.0
 129   19:40   63.7    20    6.1   266      9.3   847.4    0.00       0    999.0
 129   19:50   63.4    20    7.0   258      9.1   847.6    0.00       0    999.0
 129   20:00   63.4    19    6.4   265      9.3   847.6    0.00       0    999.0
 129   20:10   64.9    17    6.7   258      8.8   847.8    0.00       0    999.0
 129   20:20   63.2    19    6.5   272     10.4   847.9    0.00       0    999.0
 129   20:30   62.5    20    7.0   265     10.2   848.0    0.00       0    999.0
 129   20:40   63.4    18    7.1   262     10.7   848.1    0.00       0    999.0
 129   20:50   63.6    18    6.9   260      9.5   848.2    0.00       0    999.0
 129   21:00   61.5    20    7.5   260      9.9   848.2    0.00       0    999.0
 129   21:10   61.6    20    6.8   264      8.9   848.2    0.00       0    999.0
 129   21:20   60.8    21    7.3   266     10.1   848.3    0.00       0    999.0
 129   21:30   60.6    22    6.2   272      9.1   848.4    0.00       0    999.0
 129   21:40   60.0    22    6.9   267      8.6   848.4    0.00       0    999.0
 129   21:50   59.8    22    6.5   276      8.5   848.4    0.00       0    999.0
 129   22:00   58.6    24    6.4   273      9.1   848.4    0.00       0    999.0
 129   22:10   58.8    23    6.4   270      8.2   848.4    0.00       0    999.0
 129   22:20   58.8    24    5.9   272      7.7   848.4    0.00       0    999.0
 129   22:30   58.1    24    5.8   272      7.7   848.4    0.00       0    999.0
 129   22:40   58.7    23    4.6   280      6.8   848.5    0.00       0    999.0
 129   22:50   58.9    23    4.0   281      5.9   848.6    0.00       0    999.0
 129   23:00   58.0    24    4.8   274      6.7   848.5    0.00       0    999.0
 129   23:10   57.6    25    4.6   273      6.4   848.6    0.00       0    999.0
 129   23:20   56.9    26    3.2   293      4.7   848.6    0.00       0    999.0
 129   23:30   57.3    25    3.3   293      4.7   848.6    0.00       0    999.0
 129   23:40   56.5    26    4.5   281      5.9   848.5    0.00       0    999.0
 129   23:50   56.3    27    4.6   276      6.4   848.4    0.00       0    999.0
 130    0:00   55.3    28    4.8   275      6.3   848.4    0.00       0    999.0
 130    0:10   55.9    27    4.7   290      6.9   848.4    0.00       0    999.0
 130    0:20   55.9    28    3.9   295      6.3   848.5    0.00       0    999.0
 130    0:30   56.0    29    3.4   292      5.2   848.5    0.00       0    999.0
 130    0:40   55.0    28    4.1   280      5.9   848.5    0.00       0    999.0
 130    0:50   53.6    30    4.6   266      7.0   848.5    0.00       0    999.0
 130    1:00   54.0    29    4.6   263      6.4   848.5    0.00       0    999.0
 130    1:10   53.7    30    4.3   277      6.6   848.4    0.00       0    999.0
 130    1:20   52.8    32    2.5   289      4.4   848.4    0.00       0    999.0
 130    1:30   53.3    31    2.3   274      4.5   848.4    0.00       0    999.0
 130    1:40   52.2    32    4.4   270      6.1   848.5    0.00       0    999.0
 130    1:50   52.1    34    3.0   299      3.7   848.5    0.00       0    999.0
 130    2:00   52.2    33    2.6   301      3.6   848.5    0.00       0    999.0
 130    2:10   52.1    33    3.2   280      5.4   848.6    0.00       0    999.0
 130    2:20   51.0    34    5.0   272      5.6   848.6    0.00       0    999.0
 130    2:30   51.3    34    4.3   275      5.6   848.6    0.00       0    999.0
 130    2:40   51.4    34    4.1   282      6.4   848.6    0.00       0    999.0
 130    2:50   50.6    36    3.9   271      5.9   848.6    0.00       0    999.0
 130    3:00   51.0    35    3.3   275      5.3   848.7    0.00       0    999.0
 130    3:10   50.4    36    4.9   274      6.4   848.7    0.00       0    999.0
 130    3:20   50.4    36    4.4   273      5.6   848.7    0.00       0    999.0
 130    3:30   49.5    38    4.9   274      6.4   848.8    0.00       0    999.0
 130    3:40   50.2    36    3.9   285      5.8   848.7    0.00       0    999.0
 130    3:50   49.7    38    3.6   273      5.0   848.7    0.00       0    999.0
 130    4:00   48.8    40    4.5   267      6.1   848.7    0.00       0    999.0
 130    4:10   48.4    42    5.0   268      5.8   848.7    0.00       0    999.0
 130    4:20   48.7    40    4.4   269      5.6   848.7    0.00       0    999.0
 130    4:30   48.3    42    4.1   270      5.6   848.7    0.00       0    999.0
 130    4:40   48.3    42    4.4   270      5.6   848.7    0.00       1    999.0
 130    4:50   48.3    42    3.6   280      4.7   848.7    0.00       1    999.0
 130    5:00   48.5    42    2.8   273      4.7   848.7    0.00       4    999.0
 130    5:10   48.8    42    2.1   290      3.4   848.7    0.00      13    999.0
 130    5:20   48.8    43    1.5   290      3.5   848.7    0.00      31    999.0
 130    5:30   50.1    41    1.8   283      3.4   848.7    0.00      58    999.0
 130    5:40   52.2    39    0.4   274      2.0   848.7    0.00      92    999.0
 130    5:50   55.0    35    0.0    36      1.0   848.8    0.00     124    999.0
 130    6:00   56.2    33    0.9    23      2.6   848.9    0.00     155    999.0
 130    6:10   55.6    34    1.8    35      3.6   849.0    0.00     187    999.0
 130    6:20   56.2    35    1.4    34      3.6   849.0    0.00     221    999.0
 130    6:30   56.9    33    1.8    68      3.7   849.1    0.00     256    999.0
 130    6:40   56.9    33    1.7    80      3.2   849.2    0.00     290    999.0
 130    6:50   57.9    32    1.1    93      2.8   849.2    0.00     325    999.0
 130    7:00   58.9    32    1.6    77      3.1   849.1    0.00     360    999.0
 130    7:10   59.3    31    2.0    78      3.7   849.1    0.00     394    999.0
 130    7:20   60.1    31    2.1    90      4.2   849.1    0.00     429    999.0
 130    7:30   60.4    30    2.6    98      4.7   849.1    0.00     463    999.0
 130    7:40   60.9    29    2.5   106      4.4   849.1    0.00     497    999.0
 130    7:50   61.6    29    2.8    94      4.7   849.1    0.00     530    999.0
 130    8:00   62.7    29    2.0   106      4.5   849.1    0.00     563    999.0
 130    8:10   65.0    26    2.1    72      4.5   849.0    0.00     595    999.0
 130    8:20   65.8    26    2.2    78      4.5   849.0    0.00     626    999.0
 130    8:30   66.0    27    2.2    96      4.3   849.0    0.00     658    999.0
 130    8:40   66.9    26    2.4    82      5.0   848.9    0.00     687    999.0
 130    8:50   67.9    26    1.9    71      4.4   848.9    0.00     717    999.0
 130    9:00   69.7    25    1.9   111      4.9   848.8    0.00     745    999.0
 130    9:10   70.5    24    1.8    88      4.7   848.8    0.00     772    999.0
 130    9:20   71.6    23    2.1    94      5.7   848.7    0.00     797    999.0
 130    9:30   71.6    22    3.1   105      5.5   848.7    0.00     821    999.0
 130    9:40   72.2    21    2.3    79      5.6   848.7    0.00     844    999.0
 130    9:50   73.5    20    2.4    97      5.3   848.7    0.00     866    999.0
 130   10:00   73.8    18    3.2    83      6.9   848.6    0.00     886    999.0
 130   10:10   74.7    17    3.1    93      7.2   848.6    0.00     904    999.0
 130   10:20   75.8    15    2.9    78      6.7   848.5    0.00     922    999.0
 130   10:30   77.0    14    3.9    87      8.2   848.4    0.00     938    999.0
 130   10:40   78.2    14    3.6   113      6.9   848.4    0.00     952    999.0
 130   10:50   80.3    13    3.1   158      5.6   848.3    0.00     965    999.0
 130   11:00   79.9    12    2.8    87      6.6   848.3    0.00     976    999.0
 130   11:10   79.8    12    3.3    44      6.5   848.2    0.00     985    999.0
 130   11:20   80.0    13    5.3   102      9.6   848.1    0.00     991    999.0
 130   11:30   80.2    13    5.1    98      9.8   848.1    0.00     994    999.0
 130   11:40   81.1    12    3.1    78      8.0   848.0    0.00     999    999.0
 130   11:50   81.1    13    5.0   110      9.3   847.9    0.00    1002    999.0
 130   12:00   82.2    13    3.5   136      6.6   847.8    0.00    1003    999.0
 130   12:10   82.1    13    4.9    92      8.7   847.6    0.00    1002    999.0
 130   12:20   83.2    13    3.0    87      6.7   847.6    0.00    1000    999.0
 130   12:30   85.3    12    2.7   346      8.0   847.5    0.00     996    999.0
 130   12:40   85.2    13    6.1   180     21.9   847.4    0.00     988    999.0
 130   12:50   85.4    13   10.5   207     21.3   847.4    0.00     980    999.0
 130   13:00   86.1    14   10.5   213     21.6   847.3    0.00     970    999.0
 130   13:10   85.8    14    9.4   222     17.1   847.3    0.00     959    999.0
 130   13:20   85.5    14   11.4   221     23.2   847.2    0.00     947    999.0
 130   13:30   85.7    14   10.5   220     17.0   847.2    0.00     934    999.0
 130   13:40   85.7    14   10.3   222     20.2   847.1    0.00     920    999.0
 130   13:50   85.6    14    9.9   229     18.6   847.1    0.00     906    999.0
 130   14:00   85.0    14    8.8   238     19.5   847.0    0.00     889    999.0

Return to Yerington, Nevada graphs page.


Western Regional Climate Center,wrcc@dri.edu